EW5711 Weather Reports


time (UTC)temp
C
wind
direction
speed
KPH
gust
KPH
rain 1hr
cm
rain 24hr
cm
rain mn
cm
humidity
%
barometer
mb
20260507081608 10 102 0.0 9.7 0.00 0.89 0.00 79 1029.4
20260507081107 10 209 3.2 9.7 0.00 0.89 0.00 78 1029.5
20260507080608 10 119 1.6 9.7 0.00 0.89 0.00 78 1029.6
20260507075612 10 130 1.6 11.3 0.00 0.89 0.00 79 1029.7
20260507075110 10 142 3.2 11.3 0.00 0.89 0.00 78 1029.5
20260507074612 10 142 1.6 9.7 0.00 0.89 0.00 79 1029.3
20260507074113 10 106 1.6 12.9 0.00 0.89 0.00 79 1029.4
20260507073612 10 118 3.2 12.9 0.00 0.89 0.00 79 1029.3
20260507073116 10 117 0.0 8.0 0.00 0.89 0.00 79 1029.2
20260507072616 10 158 1.6 8.0 0.00 0.89 0.00 79 1029.3
20260507072117 10 180 1.6 9.7 0.00 0.89 0.00 79 1029.3
20260507071600 10 132 0.0 9.7 0.00 0.89 0.00 79 1029.3
20260507071100 10 188 1.6 8.0 0.00 0.89 0.00 79 1029.4
20260507070601 10 98 0.0 8.0 0.00 0.89 0.00 79 1029.0
20260507070104 10 226 1.6 8.0 0.00 0.89 0.00 79 1029.0
20260507065617 10 125 0.0 8.0 0.00 0.89 0.00 79 1029.1
20260507065118 10 139 0.0 12.9 0.00 0.89 0.00 79 1029.1
20260507064600 10 158 1.6 12.9 0.00 0.89 0.00 79 1029.1
20260507064100 10 124 3.2 9.7 0.00 0.89 0.00 79 1028.8
20260507063601 10 138 0.0 8.0 0.00 0.89 0.00 79 1028.9
20260507063105 10 60 0.0 8.0 0.00 0.89 0.00 79 1028.8
20260507062600 10 120 1.6 11.3 0.00 0.89 0.00 79 1028.8
20260507062101 10 116 3.2 11.3 0.00 0.89 0.00 79 1028.7
20260507061603 11 108 1.6 9.7 0.00 0.89 0.00 79 1028.8
20260507061103 11 156 0.0 6.4 0.00 0.89 0.00 79 1028.8
20260507060604 11 147 0.0 6.4 0.00 0.89 0.00 79 1028.9
20260507060106 11 192 3.2 6.4 0.00 0.89 0.00 79 1028.9
20260507055624 11 351 0.0 4.8 0.00 0.89 0.00 79 1029.2
20260507055104 11 122 0.0 4.8 0.00 0.89 0.00 79 1029.2
20260507054626 11 145 1.6 4.8 0.00 0.89 0.00 79 1029.2
20260507054105 11 80 0.0 3.2 0.00 0.89 0.00 78 1029.1
20260507053620 11 138 0.0 6.4 0.00 0.89 0.00 78 1029.1
20260507053101 11 125 0.0 6.4 0.00 0.89 0.00 78 1029.2
20260507052620 11 106 0.0 3.2 0.00 0.89 0.00 78 1029.2
20260507052100 11 143 0.0 6.4 0.00 0.89 0.00 78 1029.0
20260507051602 12 95 0.0 9.7 0.00 0.89 0.00 78 1028.9
20260507051101 12 117 0.0 9.7 0.00 0.89 0.00 78 1028.7
20260507050602 12 122 0.0 6.4 0.00 0.89 0.00 78 1028.9
20260507050125 12 104 1.6 6.4 0.00 0.89 0.00 78 1028.9
20260507045604 12 75 1.6 6.4 0.00 0.89 0.00 78 1028.8
20260507045118 12 132 0.0 6.4 0.00 0.89 0.00 78 1028.7
20260507044600 12 147 1.6 11.3 0.00 0.89 0.00 78 1028.7
20260507044121 12 162 3.2 11.3 0.00 0.89 0.00 78 1028.9
20260507043601 12 65 1.6 6.4 0.00 0.89 0.00 78 1028.9
20260507043102 13 116 1.6 8.0 0.00 0.89 0.00 77 1029.1
20260507042601 13 121 3.2 8.0 0.00 0.89 0.00 77 1029.1
20260507042100 13 131 0.0 4.8 0.00 0.89 0.00 76 1028.9
20260507041602 13 200 1.6 4.8 0.00 0.89 0.00 75 1028.8
20260507041102 13 121 1.6 9.7 0.03 0.89 0.00 75 1028.7
20260507040623 13 136 1.6 9.7 0.03 0.89 0.00 75 1028.6
20260507040145 13 120 0.0 6.4 0.03 0.89 0.00 75 1028.6
20260507035617 13 150 0.0 9.7 0.03 0.89 0.89 75 1028.4
20260507035114 14 111 1.6 12.9 0.03 0.89 0.89 75 1028.4
20260507034615 14 94 3.2 14.5 0.03 0.89 0.89 75 1028.2
20260507034114 14 119 3.2 14.5 0.03 0.89 0.89 74 1028.2
20260507033616 14 85 0.0 12.9 0.03 0.89 0.89 73 1028.1
20260507033138 15 125 4.8 16.1 0.03 0.89 0.89 73 1028.1
20260507032617 15 96 6.4 16.1 0.03 0.89 0.89 72 1028.1
20260507032117 15 144 1.6 12.9 0.03 0.89 0.89 72 1028.1
20260507031601 15 105 0.0 6.4 0.00 0.86 0.86 71 1028.1
20260507031101 15 131 1.6 4.8 0.00 0.86 0.86 71 1027.9
20260507030624 15 50 0.0 3.2 0.00 0.86 0.86 71 1027.7
20260507030105 15 131 0.0 4.8 0.00 0.86 0.86 71 1027.6
20260507025605 15 119 0.0 4.8 0.00 0.86 0.86 71 1027.7
20260507025106 15 119 0.0 3.2 0.00 0.86 0.86 71 1027.6
20260507024608 15 87 0.0 3.2 0.00 0.86 0.86 71 1027.6
20260507024107 15 67 0.0 8.0 0.00 0.86 0.86 71 1027.6
20260507023607 15 60 1.6 8.0 0.00 0.86 0.86 72 1027.5
20260507023111 15 12 1.6 12.9 0.00 0.86 0.86 72 1027.6
20260507022611 15 52 0.0 12.9 0.00 0.86 0.86 72 1027.7
20260507022131 15 62 1.6 11.3 0.00 0.86 0.86 72 1027.6
20260507021611 15 50 1.6 8.0 0.00 0.86 0.86 72 1027.6
20260507021111 15 87 1.6 9.7 0.00 0.86 0.86 72 1027.7
20260507020613 15 3 3.2 9.7 0.00 0.86 0.86 72 1027.7
20260507015617 15 81 1.6 9.7 0.00 0.86 0.86 72 1027.8
20260507015138 15 108 0.0 12.9 0.00 0.86 0.86 72 1027.9
20260507014559 15 85 4.8 12.9 0.00 0.86 0.86 72 1028.0
20260507014059 15 51 3.2 14.5 0.00 0.86 0.86 72 1028.0
20260507013559 15 56 0.0 14.5 0.00 0.86 0.86 72 1028.0
20260507013103 15 83 3.2 16.1 0.00 0.86 0.86 72 1028.0
20260507012603 15 62 1.6 9.7 0.00 0.86 0.86 72 1028.0
20260507012124 15 79 1.6 14.5 0.00 0.86 0.86 72 1027.9
20260507011606 15 44 3.2 14.5 0.00 0.86 0.86 72 1028.0
20260507011105 15 36 3.2 14.5 0.00 0.86 0.86 72 1028.1
20260507010606 15 78 1.6 14.5 0.00 0.86 0.86 72 1028.0
20260507010108 15 31 6.4 12.9 0.00 0.86 0.86 72 1028.1
20260507005629 15 43 3.2 12.9 0.00 0.86 0.86 72 1028.0
20260507005110 15 99 3.2 12.9 0.00 0.86 0.86 72 1028.0
20260507004632 15 85 1.6 12.9 0.00 0.86 0.86 72 1028.1
20260507004112 15 63 3.2 17.7 0.03 0.86 0.86 72 1028.1
20260507003613 15 43 3.2 17.7 0.08 0.86 0.86 72 1028.1
20260507003115 15 90 6.4 17.7 0.08 0.86 0.86 71 1028.0
20260507002615 15 79 3.2 11.3 0.10 0.86 0.86 71 1027.9
20260507002116 15 87 3.2 11.3 0.10 0.86 0.86 71 1028.1
20260507001639 15 86 3.2 9.7 0.13 0.86 0.86 71 1028.0
20260507001059 15 66 1.6 8.0 0.13 0.86 0.86 71 1027.9
20260507000104 15 48 4.8 12.9 0.15 0.86 0.86 71 1027.7
20260506235601 15 56 3.2 9.7 0.15 0.86 0.86 72 1027.7
20260506235103 15 32 1.6 14.5 0.15 0.86 0.86 72 1027.7
20260506234606 15 65 1.6 19.3 0.15 0.86 0.86 72 1027.7
20260506234106 15 64 4.8 19.3 0.13 0.84 0.84 72 1027.9
20260506233608 15 39 3.2 12.9 0.08 0.79 0.79 72 1027.8
20260506232617 15 64 6.4 17.7 0.08 0.76 0.76 72 1027.8
20260506232118 15 61 4.8 12.9 0.08 0.76 0.76 72 1027.9
20260506231622 15 58 4.8 16.1 0.08 0.74 0.74 72 1028.1
20260506231100 15 57 3.2 19.3 0.10 0.74 0.74 72 1028.0
20260506230600 15 48 6.4 19.3 0.08 0.71 0.71 72 1027.9
20260506225604 15 41 1.6 9.7 0.10 0.71 0.71 72 1028.0
20260506225105 15 91 3.2 8.0 0.10 0.71 0.71 72 1028.1
20260506224607 15 60 1.6 8.0 0.10 0.71 0.71 72 1028.0
20260506224109 15 10 1.6 12.9 0.10 0.71 0.71 72 1028.1
20260506223610 15 45 3.2 19.3 0.13 0.71 0.71 73 1028.1
20260506223112 15 62 4.8 19.3 0.10 0.69 0.69 73 1028.2
20260506222612 15 50 4.8 14.5 0.13 0.69 0.69 73 1028.2
20260506222115 16 27 4.8 12.9 0.13 0.69 0.69 73 1028.3
20260506221600 16 358 4.8 14.5 0.13 0.66 0.66 73 1028.4
20260506221122 16 40 4.8 14.5 0.10 0.64 0.64 73 1028.4
20260506220601 16 60 4.8 17.7 0.13 0.64 0.64 73 1028.4
20260506220104 16 15 8.0 17.7 0.13 0.64 0.64 73 1028.4
20260506215604 16 8 3.2 16.1 0.13 0.61 0.61 72 1028.6
20260506215106 16 334 4.8 17.7 0.15 0.61 0.61 73 1028.6
20260506214608 16 2 4.8 17.7 0.15 0.61 0.61 73 1028.6
20260506214108 16 7 4.8 20.9 0.18 0.61 0.61 72 1028.7
20260506213609 16 4 4.8 20.9 0.20 0.58 0.58 72 1028.7
20260506213114 16 40 3.2 17.7 0.23 0.58 0.58 72 1028.7
20260506212617 16 36 4.8 16.1 0.23 0.56 0.56 72 1028.9
20260506212118 16 339 1.6 9.7 0.25 0.56 0.56 72 1028.9
20260506211600 16 6 1.6 8.0 0.30 0.53 0.53 73 1028.9
20260506211059 16 356 1.6 6.4 0.33 0.53 0.53 73 1029.0
20260506210601 16 58 0.0 4.8 0.30 0.51 0.51 73 1029.0
20260506205603 16 26 0.0 6.4 0.30 0.48 0.48 73 1029.1
20260506205105 16 24 1.6 6.4 0.28 0.46 0.46 73 1029.1
20260506204608 16 12 1.6 11.3 0.30 0.46 0.46 73 1029.0
20260506204109 16 354 1.6 11.3 0.28 0.43 0.43 74 1029.0
20260506203630 16 352 1.6 8.0 0.25 0.38 0.38 74 1029.1
20260506203111 16 341 1.6 8.0 0.25 0.36 0.36 74 1029.1
20260506202613 16 3 1.6 6.4 0.25 0.33 0.33 74 1029.1
20260506202113 16 345 0.0 6.4 0.23 0.30 0.30 74 1029.1
20260506201614 16 344 0.0 6.4 0.18 0.23 0.23 74 1029.2
20260506201136 16 7 1.6 6.4 0.15 0.20 0.20 75 1029.0
20260506200617 16 38 0.0 6.4 0.18 0.20 0.20 75 1028.8
20260506200059 16 323 0.0 6.4 0.18 0.20 0.20 75 1028.9
20260506195600 17 52 0.0 6.4 0.15 0.18 0.18 75 1029.0
20260506195123 17 343 0.0 4.8 0.15 0.18 0.18 76 1029.1
20260506194644 17 356 0.0 4.8 0.13 0.15 0.15 76 1029.0
20260506194136 17 67 0.0 3.2 0.15 0.15 0.15 75 1029.0
20260506193634 17 327 0.0 4.8 0.13 0.13 0.13 76 1029.2
20260506193136 17 300 0.0 4.8 0.10 0.10 0.10 76 1029.4
20260506192616 17 307 0.0 1.6 0.08 0.08 0.08 76 1029.4
20260506192058 17 307 0.0 1.6 0.08 0.08 0.08 76 1029.5
20260506191602 17 148 0.0 3.2 0.05 0.05 0.05 76 1029.7
20260506191125 17 148 0.0 3.2 0.05 0.05 0.05 75 1029.5
20260506190607 18 147 0.0 8.0 0.03 0.03 0.03 75 1029.5
20260506190111 18 82 0.0 9.7 0.03 0.03 0.03 74 1029.3
20260506185613 18 51 1.6 12.9 0.03 0.03 0.03 73 1029.3
20260506185113 18 61 3.2 12.9 0.03 0.03 0.03 72 1029.2
20260506184614 18 50 6.4 16.1 0.03 0.03 0.03 71 1029.1
20260506184117 18 5 6.4 16.1 0.00 0.00 0.00 70 1029.0
20260506183600 18 26 4.8 16.1 0.00 0.00 0.00 70 1029.0
20260506183102 18 52 1.6 12.9 0.00 0.00 0.00 70 1029.1
20260506181601 20 41 4.8 20.9 0.00 0.00 0.00 66 1029.2
20260506181102 20 67 8.0 20.9 0.00 0.00 0.00 65 1029.2
20260506180605 20 32 8.0 19.3 0.00 0.00 0.00 64 1029.3
20260506180109 20 29 4.8 24.1 0.00 0.00 0.00 64 1029.2
20260506175609 20 356 9.7 22.5 0.00 0.00 0.00 64 1029.3
20260506175110 20 75 8.0 25.7 0.00 0.00 0.00 63 1029.3
20260506174614 20 5 6.4 25.7 0.00 0.00 0.00 63 1029.3
20260506174134 21 64 8.0 22.5 0.00 0.00 0.00 62 1029.4
20260506173633 21 57 9.7 22.5 0.00 0.00 0.00 62 1029.4
20260506173114 21 332 4.8 19.3 0.00 0.00 0.00 64 1029.4
20260506172613 20 55 4.8 22.5 0.00 0.00 0.00 63 1029.5
20260506172115 20 76 11.3 22.5 0.00 0.00 0.00 63 1029.5
20260506171638 20 34 9.7 22.5 0.00 0.00 0.00 63 1029.6
20260506171118 20 44 8.0 20.9 0.00 0.00 0.00 64 1029.7
20260506170601 20 353 9.7 19.3 0.00 0.00 0.00 63 1029.7
20260506165602 21 40 4.8 14.5 0.00 0.00 0.00 63 1029.8
20260506165122 21 5 3.2 11.3 0.00 0.00 0.00 63 1029.8
20260506164605 21 58 1.6 11.3 0.00 0.00 0.00 63 1029.9
20260506164125 21 5 3.2 12.9 0.00 0.00 0.00 63 1030.0
20260506163605 21 43 6.4 12.9 0.00 0.00 0.00 62 1030.1
20260506163109 21 64 1.6 11.3 0.00 0.00 0.00 62 1030.2
20260506162611 21 6 3.2 20.9 0.00 0.00 0.00 61 1030.3
20260506162134 22 41 8.0 20.9 0.00 0.00 0.00 60 1030.3
20260506161616 22 341 3.2 14.5 0.00 0.00 0.00 60 1030.5
20260506161115 21 41 6.4 20.9 0.00 0.00 0.00 60 1030.6
20260506160559 21 342 11.3 25.7 0.00 0.00 0.00 60 1030.8
20260506155601 21 53 11.3 27.4 0.00 0.00 0.00 60 1030.8
20260506155122 21 346 3.2 22.5 0.00 0.00 0.00 61 1030.9
20260506154624 21 86 6.4 22.5 0.00 0.00 0.00 61 1031.1
20260506154124 21 41 8.0 22.5 0.00 0.00 0.00 60 1031.2
20260506153605 21 13 8.0 24.1 0.00 0.00 0.00 60 1031.1
20260506153110 21 72 12.9 24.1 0.00 0.00 0.00 61 1031.3
20260506152613 21 332 9.7 19.3 0.00 0.00 0.00 62 1031.3
20260506152115 21 358 8.0 20.9 0.00 0.00 0.00 62 1031.2
20260506151636 21 64 8.0 20.9 0.00 0.00 0.00 62 1031.1
20260506151115 21 69 8.0 20.9 0.00 0.00 0.00 62 1031.4
20260506150617 21 2 3.2 20.9 0.00 0.00 0.00 62 1031.4
20260506150100 21 350 4.8 22.5 0.00 0.00 0.00 63 1031.4
20260506145559 21 60 11.3 25.7 0.00 0.00 0.00 63 1031.3
20260506145101 21 53 12.9 25.7 0.00 0.00 0.00 63 1031.3
20260506144604 21 59 12.9 20.9 0.00 0.00 0.00 63 1031.2
20260506144107 21 62 4.8 17.7 0.00 0.00 0.00 64 1031.3
20260506143609 21 78 8.0 20.9 0.00 0.00 0.00 64 1031.3
20260506143114 20 54 9.7 20.9 0.00 0.00 0.00 65 1031.2
20260506142634 20 69 9.7 20.9 0.00 0.00 0.00 65 1031.1
20260506142113 20 24 9.7 24.1 0.00 0.00 0.00 65 1031.1
20260506141637 20 341 11.3 24.1 0.00 0.00 0.00 66 1031.2
20260506140605 20 71 6.4 22.5 0.00 0.00 0.00 67 1031.2
20260506140109 19 18 8.0 25.7 0.00 0.00 0.00 67 1031.3
20260506135608 19 48 11.3 22.5 0.00 0.00 0.00 67 1031.3
20260506135110 19 18 8.0 24.1 0.00 0.00 0.00 68 1031.4
20260506134614 19 50 12.9 24.1 0.00 0.00 0.00 67 1031.5
20260506134134 19 90 4.8 20.9 0.00 0.00 0.00 68 1031.7
20260506133617 18 46 9.7 22.5 0.00 0.00 0.00 68 1031.7
20260506133100 18 45 8.0 20.9 0.00 0.00 0.00 68 1031.7
20260506132601 18 59 1.6 20.9 0.00 0.00 0.00 68 1031.7
20260506132102 18 83 6.4 17.7 0.00 0.00 0.00 68 1031.4
20260506131605 18 52 1.6 17.7 0.00 0.00 0.00 68 1031.5
20260506131106 18 75 8.0 16.1 0.00 0.00 0.00 68 1031.7
20260506130607 18 35 6.4 14.5 0.00 0.00 0.00 68 1031.7
20260506130109 18 32 4.8 17.7 0.00 0.00 0.00 68 1031.8
20260506125607 18 74 8.0 17.7 0.00 0.00 0.00 68 1031.6
20260506125108 18 13 6.4 19.3 0.00 0.00 0.00 69 1031.4
20260506124611 18 357 11.3 22.5 0.00 0.00 0.00 69 1031.5
20260506124112 18 3 9.7 22.5 0.00 0.00 0.00 69 1031.6
20260506123611 18 3 6.4 19.3 0.00 0.00 0.00 69 1031.8
20260506123114 18 88 3.2 20.9 0.00 0.00 0.00 70 1031.9
20260506122612 18 58 6.4 20.9 0.00 0.00 0.00 70 1031.9
20260506122113 18 64 4.8 19.3 0.00 0.00 0.00 70 1031.7
20260506121615 17 8 8.0 19.3 0.00 0.00 0.00 70 1031.7
20260506121115 17 30 3.2 14.5 0.00 0.00 0.00 70 1031.8
20260506120616 17 55 3.2 16.1 0.00 0.00 0.00 70 1032.0
20260506120059 17 51 8.0 16.1 0.00 0.00 0.00 70 1032.0
20260506115600 17 29 6.4 14.5 0.00 0.00 0.00 70 1032.0
20260506115101 17 85 6.4 17.7 0.00 0.00 0.00 70 1032.0
20260506114625 17 67 3.2 17.7 0.00 0.00 0.00 70 1032.1
20260506114104 17 26 8.0 14.5 0.00 0.00 0.00 70 1032.1
20260506113605 17 71 1.6 12.9 0.00 0.00 0.00 70 1032.1
20260506113108 17 78 3.2 12.9 0.00 0.00 0.00 71 1032.2
20260506112607 17 56 1.6 14.5 0.00 0.00 0.00 71 1032.1
20260506112109 17 21 6.4 14.5 0.00 0.00 0.00 70 1032.0
20260506111603 17 19 1.6 14.5 0.00 0.00 0.00 71 1031.9
20260506111103 17 52 4.8 12.9 0.00 0.00 0.00 71 1032.0
20260506110626 17 34 3.2 8.0 0.00 0.00 0.00 71 1032.2
20260506110107 17 83 3.2 12.9 0.00 0.00 0.00 71 1032.3
20260506105607 17 44 8.0 17.7 0.00 0.00 0.00 71 1032.2
20260506105129 17 41 4.8 17.7 0.00 0.00 0.00 71 1032.1
20260506104610 17 327 3.2 12.9 0.00 0.00 0.00 71 1032.1
20260506104110 17 346 4.8 12.9 0.00 0.00 0.00 71 1032.1
20260506103631 17 59 3.2 17.7 0.00 0.00 0.00 71 1032.2
20260506103112 17 6 9.7 17.7 0.00 0.00 0.00 71 1032.1
20260506102612 17 18 4.8 16.1 0.00 0.00 0.00 71 1032.0
20260506102111 17 17 6.4 16.1 0.00 0.00 0.00 71 1032.1
20260506101612 16 60 4.8 9.7 0.00 0.00 0.00 71 1032.3
20260506101114 16 55 0.0 16.1 0.00 0.00 0.00 71 1032.2
20260506100616 16 56 4.8 16.1 0.00 0.00 0.00 71 1032.0
20260506100059 16 59 4.8 12.9 0.00 0.00 0.00 71 1032.1
20260506095619 16 67 4.8 19.3 0.00 0.00 0.00 71 1032.0
20260506095102 16 109 11.3 19.3 0.00 0.00 0.00 71 1032.0
20260506094605 16 34 6.4 17.7 0.00 0.00 0.00 71 1032.1
20260506094104 16 50 4.8 11.3 0.00 0.00 0.00 70 1032.2
20260506093605 16 26 6.4 16.1 0.00 0.00 0.00 70 1032.2
20260506093129 16 60 6.4 16.1 0.00 0.00 0.00 70 1032.1
20260506092607 17 6 1.6 14.5 0.00 0.00 0.00 70 1032.1
20260506092109 17 47 4.8 14.5 0.00 0.00 0.00 70 1032.1
20260506091613 17 44 4.8 17.7 0.00 0.00 0.00 70 1032.1
20260506091112 17 48 4.8 17.7 0.00 0.00 0.00 69 1031.9
20260506090628 17 48 4.8 16.1 0.00 0.00 0.00 69 1031.9
20260506090130 17 43 3.2 12.9 0.00 0.00 0.00 69 1031.9
20260506085609 17 157 8.0 16.1 0.00 0.00 0.00 69 1031.9
20260506085111 17 25 6.4 16.1 0.00 0.00 0.00 69 1031.9
20260506084614 17 110 1.6 17.7 0.00 0.00 0.00 69 1031.9
20260506084116 17 57 3.2 17.7 0.00 0.00 0.00 69 1031.9
20260506083617 17 43 1.6 11.3 0.00 0.00 0.00 68 1031.9
20260506083101 17 62 3.2 11.3 0.00 0.00 0.00 68 1031.9
20260506082602 17 67 1.6 17.7 0.00 0.00 0.00 68 1031.8
20260506082104 17 68 6.4 17.7 0.00 0.00 0.00 67 1031.9